This demonstration page uses our WeatherBlox Daily Observations layout. Learn more.

40.92945, -100.16068

Hourly Observations for January 14, 2015

Temp ( °F °C ) Dew Point ( °F °C ) Humidity (%) Winds ( mph kmh ) Pressure ( in mb ) Visibility ( mi km ) Precip ( " mm )
12:15 am 00:15 Clear 18 -7.9 11 -11.5 76 76 WNW 3 6 30.5 1033 10 16.0934 N/A
12:35 am 00:35 Clear 16 -9.1 11 -11.6 82 82 WNW 6 9 30.5 1033 10 16.0934 N/A
12:55 am 00:55 Clear 15 -9.5 10 -12 82 82 W 5 7 30.5 1033 10 16.0934 N/A
1:15 am 01:15 Clear 16 -9 11 -11.4 83 83 W 5 7 30.5 1033 10 16.0934 N/A
1:35 am 01:35 Clear 15 -9.6 11 -11.6 86 86 W 3 6 30.5 1033 10 16.0934 N/A
1:55 am 01:55 Clear 14 -10 10 -12 85 85 W 6 9 30.5 1033 10 16.0934 N/A
2:15 am 02:15 Clear 15 -9.3 12 -10.9 88 88 WNW 7 11 30.5 1033 10 16.0934 N/A
2:35 am 02:35 Clear 15 -9.7 11 -11.5 87 87 WNW 3 6 30.5 1033 10 16.0934 N/A
2:55 am 02:55 Clear 14 -10.1 11 -11.6 89 89 WNW 10 17 30.5 1033 10 16.0934 N/A
3:15 am 03:15 Clear 16 -8.8 13 -10.3 89 89 WNW 8 13 30.5 1033 7 11.26538 N/A
3:35 am 03:35 Clear 15 -9.6 12 -11.1 89 89 NW 5 7 30.5 1033 7 11.26538 N/A
3:55 am 03:55 Clear 13 -10.7 10 -12.1 90 90 WNW 8 13 30.5 1033 7 11.26538 N/A
4:15 am 04:15 Clear 15 -9.2 13 -10.5 90 90 WNW 7 11 30.5 1033 7 11.26538 N/A
4:35 am 04:35 Clear 16 -8.7 14 -10.1 90 90 WNW 7 11 30.5 1033 10 16.0934 N/A
4:55 am 04:55 Clear 15 -9.6 12 -11 90 90 WNW 7 11 30.5 1033 10 16.0934 N/A
5:15 am 05:15 Clear 15 -9.6 12 -11.1 89 89 WNW 7 11 30.48 1032 10 16.0934 N/A
5:35 am 05:35 Clear 14 -9.9 11 -11.4 89 89 WNW 9 15 30.5 1033 10 16.0934 N/A
5:55 am 05:55 Clear 14 -10.1 11 -11.6 89 89 NW 6 9 30.48 1032 10 16.0934 N/A
6:15 am 06:15 Clear 13 -10.3 11 -11.8 89 89 WNW 8 13 30.48 1032 10 16.0934 N/A
6:35 am 06:35 Clear 13 -10.4 10 -12 88 88 WNW 7 11 30.48 1032 10 16.0934 N/A
6:55 am 06:55 Clear 11 -11.5 9 -13 89 89 WNW 3 6 30.48 1032 10 16.0934 N/A
7:15 am 07:15 Clear 13 -10.8 10 -12.3 89 89 NW 5 7 30.48 1032 10 16.0934 N/A
7:35 am 07:35 Clear 15 -9.5 12 -10.9 90 90 WNW 8 13 30.48 1032 10 16.0934 N/A
7:55 am 07:55 Clear 15 -9.7 12 -11.3 88 88 WNW 7 11 30.48 1032 10 16.0934 N/A
8:15 am 08:15 Sunny 15 -9.6 12 -11.3 88 88 WNW 7 11 30.48 1032 10 16.0934 N/A
8:35 am 08:35 Sunny with Mist and Fog 16 -8.9 13 -10.6 88 88 WNW 7 11 30.48 1032 5 8.0467 N/A
8:55 am 08:55 Sunny 17 -8.1 14 -10 86 86 W 7 11 30.45 1031 10 16.0934 N/A
9:15 am 09:15 Sunny 20 -6.9 16 -9 85 85 WNW 9 15 30.45 1031 10 16.0934 N/A
9:35 am 09:35 Sunny 21 -6 17 -8.3 84 84 WNW 12 19 30.45 1031 7 11.26538 N/A
9:55 am 09:55 Sunny 23 -5.2 18 -7.7 83 83 WNW 10 17 30.42 1030 10 16.0934 N/A
10:15 am 10:15 Sunny 24 -4.2 19 -7.1 80 80 WNW 12 19 30.42 1030 10 16.0934 N/A
10:35 am 10:35 Sunny 26 -3.6 19 -7 78 78 WNW 10 17 30.42 1030 10 16.0934 N/A
10:55 am 10:55 Sunny 28 -2.5 20 -6.4 75 75 WNW 10 17 30.42 1030 10 16.0934 N/A
11:15 am 11:15 Sunny 30 -1.1 22 -5.8 71 71 WNW 7 11 30.39 1029 10 16.0934 N/A
11:35 am 11:35 Sunny 32 0 22 -5.7 66 66 WNW 8 13 30.36 1028 10 16.0934 N/A
11:55 am 11:55 Sunny 33 0.7 22 -5.7 63 63 WNW 7 11 30.36 1028 10 16.0934 N/A
12:15 pm 12:15 Sunny 35 1.6 22 -5.4 60 60 W 8 13 30.33 1027 10 16.0934 N/A
12:35 pm 12:35 Sunny 37 2.5 22 -5.5 56 56 WNW 10 17 30.3 1026 10 16.0934 N/A
12:55 pm 12:55 Sunny 38 3.2 22 -5.6 53 53 W 7 11 30.27 1025 10 16.0934 N/A
1:15 pm 13:15 Sunny 38 3.6 21 -5.9 50 50 WNW 9 15 30.27 1025 10 16.0934 N/A
1:35 pm 13:35 Sunny 39 4 22 -5.7 50 50 W 7 11 30.27 1025 10 16.0934 N/A
1:55 pm 13:55 Sunny 39 4 22 -5.8 49 49 WNW 7 11 30.24 1024 10 16.0934 N/A
2:15 pm 14:15 Sunny 40 4.6 21 -6.3 45 45 W 8 13 30.24 1024 10 16.0934 N/A
2:35 pm 14:35 Sunny 40 4.6 20 -6.4 45 45 NW 7 11 30.24 1024 10 16.0934 N/A
2:55 pm 14:55 Sunny 40 4.6 20 -6.4 45 45 WNW 7 11 30.24 1024 10 16.0934 N/A
3:15 pm 15:15 Sunny 40 4.7 20 -6.8 43 43 NW 6 9 30.24 1024 10 16.0934 N/A
3:35 pm 15:35 Sunny 40 4.7 20 -6.9 43 43 WNW 3 6 30.18 1022 10 16.0934 N/A
3:55 pm 15:55 Sunny 41 5 20 -6.7 43 43 Calm 30.18 1022 10 16.0934 N/A
4:15 pm 16:15 Sunny 40 4.7 20 -6.9 43 43 W 3 6 30.24 1024 10 16.0934 N/A
4:35 pm 16:35 Sunny 39 4 21 -6.1 48 48 W 3 6 30.21 1023 10 16.0934 N/A
4:55 pm 16:55 Sunny 38 3.2 22 -5.7 52 52 W 5 7 30.24 1024 10 16.0934 N/A
5:15 pm 17:15 Sunny 37 2.5 22 -5.5 56 56 SW 3 6 30.21 1023 10 16.0934 N/A
5:35 pm 17:35 Clear 36 2 22 -5.6 58 58 Calm 30.27 1025 10 16.0934 N/A
5:55 pm 17:55 Clear 32 0 22 -5.3 68 68 SW 3 6 30.24 1024 10 16.0934 N/A
6:15 pm 18:15 Clear 31 -0.8 22 -5.6 70 70 Calm 30.24 1024 10 16.0934 N/A
6:35 pm 18:35 Clear 29 -1.4 21 -5.9 72 72 SSW 6 9 30.24 1024 10 16.0934 N/A
6:55 pm 18:55 Clear 30 -1.1 21 -6 70 70 SW 6 9 30.24 1024 10 16.0934 N/A
7:15 pm 19:15 Clear 27 -2.8 21 -6.3 77 77 WSW 6 9 30.27 1025 10 16.0934 N/A
7:35 pm 19:35 Clear 26 -3.3 20 -6.5 79 79 WSW 6 9 30.27 1025 10 16.0934 N/A
7:55 pm 19:55 Clear 27 -2.7 21 -6.1 78 78 WSW 5 7 30.27 1025 10 16.0934 N/A
8:15 pm 20:15 Clear 26 -3.1 20 -6.5 78 78 WSW 5 7 30.27 1025 10 16.0934 N/A
8:35 pm 20:35 Clear 23 -4.8 19 -7.4 82 82 WSW 5 7 30.3 1026 10 16.0934 N/A
8:55 pm 20:55 Clear 22 -5.4 18 -7.6 85 85 W 6 9 30.3 1026 10 16.0934 N/A
9:15 pm 21:15 Clear 22 -5.8 18 -8 85 85 W 7 11 30.27 1025 10 16.0934 N/A
9:35 pm 21:35 Clear 21 -6.2 17 -8.4 85 85 W 6 9 30.27 1025 10 16.0934 N/A
9:55 pm 21:55 Clear 24 -4.3 20 -6.4 85 85 W 3 6 30.24 1024 10 16.0934 N/A
10:15 pm 22:15 Clear 24 -4.4 19 -7.5 79 79 NW 5 7 30.27 1025 10 16.0934 N/A
10:35 pm 22:35 Clear 20 -6.7 16 -8.7 86 86 NW 5 7 30.27 1025 10 16.0934 N/A
10:55 pm 22:55 Clear 19 -7.1 16 -9 86 86 NNW 5 7 30.33 1027 10 16.0934 N/A
11:15 pm 23:15 Clear 19 -7 16 -8.7 88 88 Calm 30.27 1025 10 16.0934 N/A
11:35 pm 23:35 Clear 19 -7 16 -8.9 86 86 WNW 5 7 30.33 1027 10 16.0934 N/A
11:55 pm 23:55 Clear 19 -7.1 17 -8.6 89 89 WNW 5 7 30.27 1025 10 16.0934 N/A

Powered by AerisWeather